Regional Weather Roundup
Issued by NWS Upton, NY

Current Version | Previous Version | Graphics & Text | Print | Product List | Glossary Off
Versions: 1 2 3 4 5 6 7 8 9 10 11 12 13 14 15 16 17 18 19 20 21 22 23 24 25 26 27

000
ASUS41 KOKX 051008
RWROKX

REGIONAL WEATHER ROUNDUP
NATIONAL WEATHER SERVICE NEW YORK NY
500 AM EST MON DEC 05 2016

NOTE: "FAIR" INDICATES FEW OR NO CLOUDS BELOW 12,000 FEET WITH NO
SIGNIFICANT WEATHER AND/OR OBSTRUCTIONS TO VISIBILITY.

NYZ071-072-176-178-NJZ106-104-051100-
NEW YORK CITY METRO AREA

CITY           SKY/WX    TMP DP  RH WIND       PRES   REMARKS
Central Park   RAIN      39  36  89 VRB3      30.04F FOG
Wall St Helipt CLOUDY    40  37  89 SW7       30.04F
Bronx Bot Gard NOT AVBL
LaGuardia APRT LGT RAIN  41  36  82 SW8       30.02F
Kennedy INTL   LGT RAIN  41  36  82 W12       30.04F
Breezy Point     N/A     37 N/A N/A SW6         N/A  WCI  33
Newark/Liberty RAIN      38  35  89 S8        30.03F FOG     WCI  32
Teterboro      LGT RAIN  36  32  85 NW3       30.03F FOG
$$

NYZ177-179-078>081-051100-
LONG ISLAND NEW YORK

CITY           SKY/WX    TMP DP  RH WIND       PRES   REMARKS
Jones Beach      N/A     43 N/A N/A S12G18      N/A
Matinecock PT    N/A     37 N/A N/A SE3         N/A
Farmingdale    LGT RAIN  41  37  86 S10       30.03F
MacArthur/ISP  LGT RAIN  40  37  89 SE8       30.03F WCI  34
Shirley        LGT RAIN  38  36  92 SE6       30.06F WCI  33
Westhampton    LGT RAIN  38  35  89 S3        30.08F
Southampton    NOT AVBL
Bridgehampton  NOT AVBL
East Hampton   LGT RAIN  37  32  81 S3        30.07F
Montauk          N/A     44  35  70 S7        30.08F
$$

NYZ052-065-067-051100-
HUDSON VALLEY

CITY           SKY/WX    TMP DP  RH WIND       PRES   REMARKS
White Plains   LGT RAIN  34  32  92 E6        30.00F WCI  29
Newburgh       LGT SNOW  30  30 100 CALM      30.02F FOG
Montgomery     LGT SNOW  30  28  92 CALM      30.00F FOG
Poughkeepsie   LGT SNOW  30  28  92 CALM      30.02F FOG
Albany         LGT SNOW  28  25  88 S3        30.01F VSB 1
$$

NJZ001-105-106-008-010-013-015-019>022-104-051100-
NEW JERSEY

CITY           SKY/WX    TMP DP  RH WIND       PRES   REMARKS
Newark/Liberty RAIN      38  35  89 S8        30.03F FOG     WCI  32
Teterboro      LGT RAIN  36  32  85 NW3       30.03F FOG
Caldwell       LGT SNOW  33  32  96 CALM      30.04F FOG
Somerville     MIX PCPN  34  32  92 CALM      30.01F FOG
Linden         LGT RAIN  36  33  90 CALM      30.04S
Sussex         LGT SNOW  30  29  96 CALM      30.00F FOG
Andover          N/A     33  32  96 CALM      29.99F
Trenton        CLOUDY    38  35  89 S3        30.02F
Millville      LGT RAIN  41  41 100 VRB5      30.02F
Atlantic City  LGT RAIN  41  39  93 SW3       30.02S FOG
Wrightstown    LGT RAIN  37  37 100 CALM      29.99F
Toms River     RAIN      38  38 100 CALM      30.03S
Belmar         LGT RAIN  38  35  89 NW5       30.03F WCI  34
$$

PAZ047>061-062-071-051100-
EASTERN PENNSYLVANIA

CITY           SKY/WX    TMP DP  RH WIND       PRES   REMARKS
Philadelphia   CLOUDY    40  37  89 S9        30.04S FOG     WCI  34
Allentown      LGT SNOW  34  31  88 E3        30.00S FOG
Scranton       CLOUDY    34  32  92 W3        29.92F
$$

CTZ002-004>006-009-010-012-RIZ004-006-007-MAZ004-011-015-051100-
SOUTHERN NEW ENGLAND
 IN CT

CITY           SKY/WX    TMP DP  RH WIND       PRES   REMARKS
Bradley INTL   LGT SNOW  30  23  75 NE8       30.05F WCI  22
Hartford       CLOUDY    31  23  72 NE5       30.06F WCI  26
Danbury        LGT SNOW  30  29  96 E3        30.03F VSB 1
Wtrbury/Oxford CLOUDY    30  25  80 E3        30.04F VSB 1/4
Bridgeport     LGT RAIN  40  34  79 SE8       30.05F WCI  34
Meriden        CLOUDY    34  22  61 CALM      30.06F
New Haven      LGT SNOW  34  26  72 CALM      30.05F
Chester        CLOUDY    32  21  64 CALM      30.05F
Groton         LGT RAIN  37  27  67 N3        30.08F
Wilimantic     FLURRIES  32  26  78 E3        30.09F

 IN RI

CITY           SKY/WX    TMP DP  RH WIND       PRES   REMARKS
Providence     CLOUDY    31  23  72 NE5       30.10F WCI  26
Block Island   LGT RAIN  43  34  70 S12       30.09F
Westerly       LGT RAIN  34  22  61 NE6       30.10F WCI  29
 IN MA

CITY           SKY/WX    TMP DP  RH WIND       PRES   REMARKS
Boston         CLOUDY    32  23  69 NW5       30.13R WCI  27
Worcester      CLOUDY    27  19  72 E3        30.04F
Westfield      CLOUDY    30  24  78 N3        30.06F
Provincetown   CLOUDY    35  30  82 SW5       30.13R WCI  31
Nantucket      CLOUDY    35  27  72 NW3       30.13R
$$

ANZ330-335-338-340-345-350-353-355-051100-
COASTAL MARINE OBSERVATIONS


STATION/POSITION TIME  SKY/WX   TEMP    WIND        PRES    VSBY  WAVE
                                AIR SEA DIR/SP/G                  HT/PER
                 (UTC)          (F)     (DEG/KT/KT) (MB)    (MI)  (FT/S)
NY HARB ENTRANCE 0850            45 53  200/ 16/ 19 1017.5          2/ 4
20 S FIRE ISLAND 0950            45 54  170/ 14/ 17 1017.0          2/ 3
GREAT SOUTH BAY  0930            43 43                N/A
23 SSW MONTAUK P 0950            44 54  200/  6/ 14 1019.0          2/ 3
15 E BARNEGAT LI 0930               55                N/A           3/ 4
HUDSON CANYON    0850            48 58              1018.6          2/ 7
KINGS POINT      0948            40 48              1016.4
EXECUTION ROCKS  0945            41     140/  8/ 10   N/A
CENTRAL LI SOUND 0945            43 50  190/ 10/ 14   N/A           1
EASTERN LI SOUND NOT AVBL
ROBBINS REEF     0948            38     210/  6/  9 1017.2
$$


>>>>>>>>>>>>>>>>>>>>>>>>>>>> KEY <<<<<<<<<<<<<<<<<<<<<<<<<<<
>                                                          <
>     SKY/WX - Sky Condition/Present Weather               <
>     TMP    - Temperature in Fahrenheit                   <
>     DP     - Dew Point in Fahrenheit                     <
>     RH     - Relative Humidity in Percent                <
>     WIND   - Direction (from) and Speed in MPH           <
>     PRES   - Mean Sea Level Pressure (inches of Hg)      <
>     WCI    - Wind Chill Index                            <
>     VSB    - VISIBILITY IN MILES                         <
>     HX     - HEAT INDEX                                  <
>     TC     - TEMPERATURE IN CELSIUS                      <
>     VRB    - VARIABLE WIND DIRECTION                     <
>                                                          <
>>>>>>>>>>>>>>>>>>>>>>>>>>>> KEY <<<<<<<<<<<<<<<<<<<<<<<<<<<




USA.gov is the U.S. government's official web portal to all federal, state and local government web resources and services.